START_TIME,STEP,MOV.,H8,t_acc.,H43,t_acc.,M25,t_acc.,H9,t_acc.
1989-08-24T12:00:30.390 ,1,0,0.,12.0,0.,12.0,0.,12.0,0.,12.0
1989-08-24T12:00:42.390 ,1,0,0.,12.0,0.,12.0,0.,12.0,0.,12.0
1989-08-24T12:00:54.390 ,0,0,0.,12.0,0.,12.0,0.,12.0,0.,12.0
1989-08-24T12:01:06.390 ,0,0,0.,12.0,0.,12.0,0.,12.0,0.,12.0
1989-08-24T12:01:18.390 ,0,0,0.,12.0,0.,12.0,0.,12.0,0.,12.0
1989-08-24T12:01:30.390 ,0,0,0.,12.0,0.,12.0,0.,12.0,0.,12.0
1989-08-24T12:01:42.390 ,0,0,0.,12.0,0.,12.0,0.,12.0,0.,12.0
1989-08-24T12:01:54.390 ,0,0,0.,12.0,0.,12.0,0.,12.0,0.,12.0
1989-08-24T12:02:06.390 ,0,0,0.,12.0,0.,12.0,0.,12.0,0.,12.0
1989-08-24T12:02:18.390 ,0,0,0.,12.0,0.,12.0,0.,12.0,0.,12.0
1989-08-24T12:02:30.380 ,1,0,0.,12.0,0.,12.0,0.,12.0,0.,12.0
1989-08-24T12:02:42.390 ,1,0,0.,12.0,0.,12.0,0.,12.0,0.,12.0
1989-08-24T12:02:54.380 ,1,0,0.,12.0,0.,12.0,0.,12.0,0.,12.0
1989-08-24T12:03:06.390 ,1,0,0.,12.0,0.,12.0,0.,12.0,0.,12.0
1989-08-24T12:03:18.380 ,2,0,0.,12.0,0.,12.0,0.,12.0,0.,12.0
1989-08-24T12:03:30.390 ,2,0,0.,12.0,0.,12.0,0.,12.0,0.,12.0
1989-08-24T12:03:42.380 ,2,0,0.,12.0,0.,12.0,0.,12.0,0.,12.0
1989-08-24T12:03:54.390 ,2,0,0.,12.0,0.,12.0,0.,12.0,0.,12.0
1989-08-24T12:04:06.380 ,3,0,0.,12.0,0.,12.0,0.,12.0,0.,12.0
1989-08-24T12:04:18.390 ,3,0,0.,12.0,0.,12.0,0.,12.0,0.,12.0
1989-08-24T12:04:30.390 ,3,0,0.,12.0,0.,12.0,0.,12.0,0.,12.0
1989-08-24T12:04:42.390 ,3,0,0.,12.0,0.,12.0,0.,12.0,0.,12.0
1989-08-24T12:04:54.390 ,4,0,0.,12.0,0.,12.0,0.,12.0,0.,12.0
1989-08-24T12:05:06.390 ,4,0,0.,12.0,0.,12.0,0.,12.0,0.,12.0
1989-08-24T12:05:18.390 ,4,0,0.,12.0,0.,12.0,0.,12.0,0.,12.0
1989-08-24T12:05:30.390 ,4,0,0.,12.0,0.,12.0,0.,12.0,0.,12.0
1989-08-24T12:05:42.390 ,5,0,0.,12.0,0.,12.0,0.,12.0,0.,12.0
1989-08-24T12:05:54.390 ,5,0,0.,12.0,0.,12.0,0.,12.0,0.,12.0
1989-08-24T12:06:06.390 ,5,0,0.,12.0,0.,12.0,0.,12.0,0.,12.0
1989-08-24T12:06:18.390 ,5,0,0.,12.0,0.,12.0,0.,12.0,0.,12.0
1989-08-24T12:06:30.390 ,6,0,0.,12.0,0.,12.0,0.,12.0,0.,12.0
1989-08-24T12:06:42.390 ,6,0,0.,12.0,0.,12.0,0.,12.0,0.,12.0
1989-08-24T12:06:54.390 ,6,0,0.,12.0,0.,12.0,0.,12.0,0.,12.0
1989-08-24T12:07:06.390 ,6,0,0.,12.0,0.,12.0,0.,12.0,0.,12.0
1989-08-24T12:07:18.390 ,7,0,0.,12.0,0.,12.0,0.,12.0,0.,12.0
1989-08-24T12:07:30.390 ,7,0,0.,12.0,0.,12.0,0.,12.0,0.,12.0
1989-08-24T12:07:42.390 ,7,0,0.,12.0,0.,12.0,0.,12.0,0.,12.0
1989-08-24T12:07:54.390 ,7,0,0.,12.0,0.,12.0,0.,12.0,0.,12.0
1989-08-24T12:08:06.390 ,7,0,0.,12.0,0.,12.0,0.,12.0,0.,12.0
1989-08-24T12:08:18.390 ,7,0,0.,12.0,0.,12.0,0.,12.0,0.,12.0
1989-08-24T12:08:30.390 ,7,0,0.,12.0,0.,12.0,0.,12.0,0.,12.0
1989-08-24T12:08:42.390 ,7,0,0.,12.0,0.,12.0,0.,12.0,0.,12.0
1989-08-24T12:08:54.390 ,6,0,0.,12.0,0.,12.0,0.,12.0,0.,12.0
1989-08-24T12:09:06.390 ,6,0,0.,12.0,0.,12.0,0.,12.0,0.,12.0
1989-08-24T12:09:18.390 ,6,0,0.,12.0,0.,12.0,0.,12.0,0.,12.0
1989-08-24T12:09:30.390 ,6,0,0.,12.0,0.,12.0,0.,12.0,0.,12.0
1989-08-24T12:09:42.390 ,5,0,0.,12.0,0.,12.0,0.,12.0,0.,12.0
1989-08-24T12:09:54.390 ,5,0,0.,12.0,0.,12.0,0.,12.0,0.,12.0
1989-08-24T12:10:06.390 ,5,0,0.,12.0,0.,12.0,0.,12.0,0.,12.0
1989-08-24T12:10:18.390 ,5,0,0.,12.0,0.,12.0,0.,12.0,0.,12.0
1989-08-24T12:10:30.390 ,4,0,0.,12.0,0.,12.0,0.,12.0,0.,12.0
1989-08-24T12:10:42.390 ,4,0,0.,12.0,0.,12.0,0.,12.0,0.,12.0
1989-08-24T12:10:54.390 ,4,0,0.,12.0,0.,12.0,0.,12.0,0.,12.0
1989-08-24T12:11:06.390 ,4,0,0.,12.0,0.,12.0,0.,12.0,0.,12.0
1989-08-24T12:11:18.390 ,3,0,0.,12.0,0.,12.0,0.,12.0,0.,12.0
1989-08-24T12:11:30.390 ,3,0,0.,12.0,0.,12.0,0.,12.0,0.,12.0
1989-08-24T12:11:42.390 ,0,0,0.,12.0,0.,12.0,0.,12.0,0.,12.0
1989-08-24T12:11:54.390 ,0,0,,0,,0,,0,,0
1989-08-24T12:12:06.380 ,2,0,0.,12.0,0.,12.0,0.,12.0,0.,12.0
1989-08-24T12:12:18.380 ,2,0,0.,12.0,0.,12.0,0.,12.0,0.,12.0
1989-08-24T12:12:30.380 ,2,0,0.,12.0,0.,12.0,0.,12.0,0.,12.0
1989-08-24T12:12:42.380 ,2,0,0.,12.0,0.,12.0,0.,12.0,0.,12.0
1989-08-24T12:12:54.380 ,1,0,0.,12.0,0.,12.0,0.,12.0,0.,12.0
1989-08-24T12:13:06.380 ,1,0,0.,12.0,0.,12.0,0.,12.0,0.,12.0
1989-08-24T12:13:18.380 ,1,0,0.,12.0,0.,12.0,0.,12.0,0.,12.0
1989-08-24T12:13:30.380 ,1,0,0.,12.0,0.,12.0,0.,12.0,0.,12.0
1989-08-24T12:13:42.380 ,0,0,0.,12.0,0.,12.0,0.,12.0,0.,12.0
1989-08-24T12:13:54.380 ,0,0,0.,12.0,0.,12.0,0.,12.0,0.,12.0
1989-08-24T12:14:06.380 ,0,0,0.,12.0,0.,12.0,0.,12.0,0.,12.0
1989-08-24T12:14:18.380 ,0,0,0.,12.0,0.,12.0,0.,12.0,0.,12.0
1989-08-24T12:14:30.380 ,0,0,0.,12.0,0.,12.0,0.,12.0,0.,12.0
1989-08-24T12:14:42.380 ,0,0,0.,12.0,0.,12.0,0.,12.0,0.,12.0
1989-08-24T12:14:54.380 ,0,0,0.,12.0,0.,12.0,0.,12.0,0.,12.0
1989-08-24T12:15:06.380 ,0,0,0.,12.0,0.,12.0,0.,12.0,0.,12.0
1989-08-24T12:15:18.380 ,1,0,0.,12.0,0.,12.0,0.,12.0,0.,12.0
1989-08-24T12:15:30.380 ,1,0,0.,12.0,0.,12.0,0.,12.0,0.,12.0
1989-08-24T12:15:42.380 ,1,0,0.,12.0,0.,12.0,0.,12.0,0.,12.0
1989-08-24T12:15:54.380 ,1,0,0.,12.0,0.,12.0,0.,12.0,0.,12.0
1989-08-24T12:16:06.380 ,2,0,0.,12.0,0.,12.0,0.,12.0,0.,12.0
1989-08-24T12:16:18.380 ,2,0,0.,12.0,0.,12.0,0.,12.0,0.,12.0
1989-08-24T12:16:30.380 ,2,0,0.,12.0,0.,12.0,0.,12.0,0.,12.0
1989-08-24T12:16:42.380 ,2,0,0.,12.0,0.,12.0,0.,12.0,0.,12.0
1989-08-24T12:16:54.380 ,3,0,0.,12.0,0.,12.0,0.,12.0,0.,12.0
1989-08-24T12:17:06.380 ,3,0,0.,12.0,0.,12.0,0.,12.0,0.,12.0
1989-08-24T12:17:18.380 ,3,0,0.,12.0,0.,12.0,0.,12.0,0.,12.0
1989-08-24T12:17:30.380 ,3,0,0.,12.0,0.,12.0,0.,12.0,0.,12.0
1989-08-24T12:17:42.380 ,4,0,0.,12.0,0.,12.0,0.,12.0,0.,12.0
1989-08-24T12:17:54.380 ,4,0,0.,12.0,0.,12.0,0.,12.0,0.,12.0
1989-08-24T12:18:06.380 ,4,0,0.,12.0,0.,12.0,0.,12.0,0.,12.0
1989-08-24T12:18:18.380 ,4,0,0.,12.0,0.,12.0,0.,12.0,0.,12.0
1989-08-24T12:18:30.380 ,5,0,0.,12.0,0.,12.0,0.,12.0,0.,12.0
1989-08-24T12:18:42.380 ,5,0,0.,12.0,0.,12.0,0.,12.0,0.,12.0
1989-08-24T12:18:54.380 ,5,0,0.,12.0,0.,12.0,0.,12.0,0.,12.0
1989-08-24T12:19:06.380 ,5,0,0.,12.0,0.,12.0,0.,12.0,0.,12.0
1989-08-24T12:19:18.380 ,6,0,0.,12.0,0.,12.0,0.,12.0,0.,12.0
1989-08-24T12:19:30.380 ,6,0,0.,12.0,0.,12.0,0.,12.0,0.,12.0
1989-08-24T12:19:42.380 ,6,0,0.,12.0,0.,12.0,0.,12.0,0.,12.0
1989-08-24T12:19:54.380 ,6,0,0.,12.0,0.,12.0,0.,12.0,0.,12.0
1989-08-24T12:20:06.380 ,7,0,0.,12.0,0.,12.0,0.,12.0,0.,12.0
1989-08-24T12:20:18.380 ,7,0,0.,12.0,0.,12.0,0.,12.0,0.,12.0
1989-08-24T12:20:30.380 ,7,0,0.,12.0,0.,12.0,0.,12.0,0.,12.0
1989-08-24T12:20:42.380 ,7,0,0.,12.0,0.,12.0,0.,12.0,0.,12.0
1989-08-24T12:20:54.380 ,7,0,0.,12.0,0.,12.0,0.,12.0,0.,12.0
1989-08-24T12:21:06.380 ,7,0,0.,12.0,0.,12.0,0.,12.0,0.,12.0
1989-08-24T12:21:18.380 ,7,0,0.,12.0,0.,12.0,0.,12.0,0.,12.0
1989-08-24T12:21:30.380 ,7,0,0.,12.0,0.,12.0,0.,12.0,0.,12.0
1989-08-24T12:21:42.380 ,6,0,0.,12.0,0.,12.0,0.,12.0,0.,12.0
1989-08-24T12:21:54.380 ,6,0,0.,12.0,0.,12.0,0.,12.0,0.,12.0
1989-08-24T12:22:06.380 ,6,0,0.,12.0,0.,12.0,0.,12.0,0.,12.0
1989-08-24T12:22:18.380 ,6,0,0.,12.0,0.,12.0,0.,12.0,0.,12.0
1989-08-24T12:22:30.380 ,5,0,0.,12.0,0.,12.0,0.,12.0,0.,12.0
1989-08-24T12:22:42.380 ,5,0,0.,12.0,0.,12.0,0.,12.0,0.,12.0
1989-08-24T12:22:54.380 ,5,0,0.,12.0,0.,12.0,0.,12.0,0.,12.0
1989-08-24T12:23:06.380 ,5,0,0.,12.0,0.,12.0,0.,12.0,0.,12.0
1989-08-24T12:23:18.380 ,4,0,0.,12.0,0.,12.0,0.,12.0,0.,12.0
1989-08-24T12:23:30.380 ,4,0,0.,12.0,0.,12.0,0.,12.0,0.,12.0
1989-08-24T12:23:42.380 ,4,0,0.,12.0,0.,12.0,0.,12.0,0.,12.0
1989-08-24T12:23:54.380 ,4,0,0.,12.0,0.,12.0,0.,12.0,0.,12.0
1989-08-24T12:24:06.380 ,3,0,0.,12.0,0.,12.0,0.,12.0,0.,12.0
1989-08-24T12:24:18.380 ,3,0,0.,12.0,0.,12.0,0.,12.0,0.,12.0
1989-08-24T12:24:30.380 ,3,0,0.,12.0,0.,12.0,0.,12.0,0.,12.0
1989-08-24T12:24:42.380 ,3,0,0.,12.0,0.,12.0,0.,12.0,0.,12.0
1989-08-24T12:24:54.380 ,2,0,0.,12.0,0.,12.0,0.,12.0,0.,12.0
1989-08-24T12:25:06.380 ,2,0,0.,12.0,0.,12.0,0.,12.0,0.,12.0
1989-08-24T12:25:18.380 ,2,0,0.,12.0,0.,12.0,0.,12.0,0.,12.0
1989-08-24T12:25:30.380 ,2,0,0.,12.0,0.,12.0,0.,12.0,0.,12.0
1989-08-24T12:25:42.380 ,1,0,0.,12.0,0.,12.0,0.,12.0,0.,12.0
1989-08-24T12:25:54.380 ,1,0,0.,12.0,0.,12.0,0.,12.0,0.,12.0
1989-08-24T12:26:06.380 ,1,0,0.,12.0,0.,12.0,0.,12.0,0.,12.0
1989-08-24T12:26:18.380 ,1,0,0.,12.0,0.,12.0,0.,12.0,0.,12.0
1989-08-24T12:26:30.380 ,0,0,0.,12.0,0.,12.0,0.,12.0,0.,12.0
1989-08-24T12:26:42.380 ,0,0,0.,12.0,0.,12.0,0.,12.0,0.,12.0
1989-08-24T12:26:54.380 ,0,0,0.,12.0,0.,12.0,0.,12.0,0.,12.0
1989-08-24T12:27:06.380 ,0,0,0.,12.0,0.,12.0,0.,12.0,0.,12.0
1989-08-24T12:27:18.380 ,0,0,0.,12.0,0.,12.0,0.,12.0,0.,12.0
1989-08-24T12:27:30.380 ,0,0,0.,12.0,0.,12.0,0.,12.0,0.,12.0
1989-08-24T12:27:42.380 ,0,0,0.,12.0,0.,12.0,0.,12.0,0.,12.0
1989-08-24T12:27:54.380 ,0,0,0.,12.0,0.,12.0,0.,12.0,0.,12.0
1989-08-24T12:28:06.380 ,1,0,0.,12.0,0.,12.0,0.,12.0,0.,12.0
1989-08-24T12:28:18.380 ,1,0,0.,12.0,0.,12.0,0.,12.0,0.,12.0
1989-08-24T12:28:30.380 ,1,0,0.,12.0,0.,12.0,0.,12.0,0.,12.0
1989-08-24T12:28:42.380 ,1,0,0.,12.0,0.,12.0,0.,12.0,0.,12.0
1989-08-24T12:28:54.380 ,2,0,0.,12.0,0.,12.0,0.,12.0,0.,12.0
1989-08-24T12:29:06.380 ,2,0,0.,12.0,0.,12.0,0.,12.0,0.,12.0
1989-08-24T12:29:18.380 ,2,0,0.,12.0,0.,12.0,0.,12.0,0.,12.0
1989-08-24T12:29:30.380 ,2,0,0.,12.0,0.,12.0,0.,12.0,0.,12.0
1989-08-24T12:29:42.380 ,3,0,0.,12.0,0.,12.0,0.,12.0,0.,12.0
1989-08-24T12:29:54.380 ,3,0,0.,12.0,0.,12.0,0.,12.0,0.,12.0
1989-08-24T12:30:06.380 ,3,0,0.,12.0,0.,12.0,0.,12.0,0.,12.0
1989-08-24T12:30:18.380 ,3,0,0.,12.0,0.,12.0,0.,12.0,0.,12.0
1989-08-24T12:30:30.380 ,4,0,0.,12.0,0.,12.0,0.,12.0,0.,12.0
1989-08-24T12:30:42.380 ,4,0,0.,12.0,0.,12.0,0.,12.0,0.,12.0
1989-08-24T12:30:54.380 ,4,0,0.,12.0,0.,12.0,0.,12.0,0.,12.0
1989-08-24T12:31:06.380 ,4,0,0.,12.0,0.,12.0,0.,12.0,0.,12.0
1989-08-24T12:31:18.380 ,5,0,0.,12.0,0.,12.0,0.,12.0,0.,12.0
1989-08-24T12:31:30.380 ,5,0,0.,12.0,0.,12.0,0.,12.0,0.,12.0
1989-08-24T12:31:42.380 ,5,0,0.,12.0,0.,12.0,0.,12.0,0.,12.0
1989-08-24T12:31:54.380 ,5,0,0.,12.0,0.,12.0,0.,12.0,0.,12.0
1989-08-24T12:32:06.380 ,6,0,0.,12.0,0.,12.0,0.,12.0,0.,12.0
1989-08-24T12:32:18.380 ,6,0,0.,12.0,0.,12.0,0.,12.0,0.,12.0
1989-08-24T12:32:30.380 ,6,0,0.,12.0,0.,12.0,0.,12.0,0.,12.0
1989-08-24T12:32:42.380 ,6,0,0.,12.0,0.,12.0,0.,12.0,0.,12.0
1989-08-24T12:32:54.380 ,7,0,0.,12.0,0.,12.0,0.,12.0,0.,12.0
1989-08-24T12:33:06.380 ,7,0,0.,12.0,0.,12.0,0.,12.0,0.,12.0
1989-08-24T12:33:18.380 ,7,0,0.,12.0,0.,12.0,0.,12.0,0.,12.0
1989-08-24T12:33:30.380 ,7,0,0.,12.0,0.,12.0,0.,12.0,0.,12.0
1989-08-24T12:33:42.380 ,7,0,0.,12.0,0.,12.0,0.,12.0,0.,12.0
1989-08-24T12:33:54.380 ,7,0,0.,12.0,0.,12.0,0.,12.0,0.,12.0
1989-08-24T12:34:06.380 ,7,0,0.,12.0,0.,12.0,0.,12.0,0.,12.0
1989-08-24T12:34:18.380 ,7,0,0.,12.0,0.,12.0,0.,12.0,0.,12.0
1989-08-24T12:34:30.380 ,6,0,0.,12.0,0.,12.0,0.,12.0,0.,12.0
1989-08-24T12:34:42.380 ,6,0,0.,12.0,0.,12.0,0.,12.0,0.,12.0
1989-08-24T12:34:54.380 ,6,0,0.,12.0,0.,12.0,0.,12.0,0.,12.0
1989-08-24T12:35:06.380 ,6,0,0.,12.0,0.,12.0,0.,12.0,0.,12.0
1989-08-24T12:35:18.380 ,5,0,0.,12.0,0.,12.0,0.,12.0,0.,12.0
1989-08-24T12:35:30.380 ,5,0,0.,12.0,0.,12.0,0.,12.0,0.,12.0
1989-08-24T12:35:42.380 ,5,0,0.,12.0,0.,12.0,0.,12.0,0.,12.0
1989-08-24T12:35:54.380 ,5,0,0.,12.0,0.,12.0,0.,12.0,0.,12.0
1989-08-24T12:36:06.380 ,4,0,0.,12.0,0.,12.0,0.,12.0,0.,12.0
1989-08-24T12:36:18.380 ,4,0,0.,12.0,0.,12.0,0.,12.0,0.,12.0
1989-08-24T12:36:30.380 ,4,0,0.,12.0,0.,12.0,0.,12.0,0.,12.0
1989-08-24T12:36:42.380 ,4,0,0.,12.0,0.,12.0,0.,12.0,0.,12.0
1989-08-24T12:36:54.380 ,3,0,0.,12.0,0.,12.0,0.,12.0,0.,12.0
1989-08-24T12:37:06.380 ,3,0,0.,12.0,0.,12.0,0.,12.0,0.,12.0
1989-08-24T12:37:18.380 ,3,0,0.,12.0,0.,12.0,0.,12.0,0.,12.0
1989-08-24T12:37:30.380 ,3,0,0.,12.0,0.,12.0,0.,12.0,0.,12.0
1989-08-24T12:37:42.380 ,2,0,0.,12.0,0.,12.0,0.,12.0,0.,12.0
1989-08-24T12:37:54.380 ,2,0,0.,12.0,0.,12.0,0.,12.0,0.,12.0
1989-08-24T12:38:06.380 ,2,0,0.,12.0,0.,12.0,0.,12.0,0.,12.0
1989-08-24T12:38:18.380 ,2,0,0.,12.0,0.,12.0,0.,12.0,0.,12.0
1989-08-24T12:38:30.380 ,1,0,0.,12.0,0.,12.0,0.,12.0,0.,12.0
1989-08-24T12:38:42.380 ,1,0,0.,12.0,0.,12.0,0.,12.0,0.,12.0
1989-08-24T12:38:54.380 ,1,0,0.,12.0,0.,12.0,0.,12.0,0.,12.0
1989-08-24T12:39:06.380 ,1,0,0.,12.0,0.,12.0,0.,12.0,0.,12.0
1989-08-24T12:39:18.380 ,0,0,0.,12.0,0.,12.0,0.,12.0,0.,12.0
1989-08-24T12:39:30.380 ,0,0,0.,12.0,0.,12.0,0.,12.0,0.,12.0
1989-08-24T12:39:42.380 ,0,0,0.,12.0,0.,12.0,0.,12.0,0.,12.0
1989-08-24T12:39:54.380 ,0,0,0.,12.0,0.,12.0,0.,12.0,0.,12.0
1989-08-24T12:40:06.380 ,0,1,0.,12.0,0.,12.0,0.,12.0,0.,12.0
1989-08-24T12:40:18.380 ,0,1,,0,,0,,0,,0
1989-08-24T12:40:30.380 ,0,0,0.,12.0,0.,12.0,0.,12.0,0.,12.0
1989-08-24T12:40:42.380 ,0,0,0.,12.0,0.,12.0,0.,12.0,0.,12.0
1989-08-24T12:40:54.380 ,1,0,0.,12.0,0.,12.0,0.,12.0,0.,12.0
1989-08-24T12:41:06.380 ,1,0,0.,12.0,0.,12.0,0.,12.0,0.,12.0
1989-08-24T12:41:18.380 ,0,0,0.,12.0,0.,12.0,0.,12.0,0.,12.0
1989-08-24T12:41:30.380 ,0,0,,0,,0,,0,,0
1989-08-24T12:41:33.980 ,0,0,,0,,0,,0,,0
1989-08-24T12:41:45.980 ,0,0,0.,12.0,0.,12.0,0.,12.0,0.,12.0
1989-08-24T12:41:42.380 ,2,0,0.,12.0,0.,12.0,0.,12.0,0.,12.0
1989-08-24T12:41:54.380 ,2,0,0.,12.0,0.,12.0,0.,12.0,0.,12.0
1989-08-24T12:42:06.380 ,2,0,0.,12.0,0.,12.0,0.,12.0,0.,12.0
1989-08-24T12:42:18.380 ,2,0,0.,12.0,0.,12.0,0.,12.0,0.,12.0
1989-08-24T12:42:30.380 ,3,0,0.,12.0,0.,12.0,0.,12.0,0.,12.0
1989-08-24T12:42:42.380 ,3,0,0.,12.0,0.,12.0,0.,12.0,0.,12.0
1989-08-24T12:42:54.380 ,3,0,0.,12.0,0.,12.0,0.,12.0,0.,12.0
1989-08-24T12:43:06.380 ,3,0,0.,12.0,0.,12.0,0.,12.0,0.,12.0
1989-08-24T12:43:18.380 ,4,0,0.,12.0,0.,12.0,0.,12.0,0.,12.0
1989-08-24T12:43:30.380 ,4,0,0.,12.0,0.,12.0,0.,12.0,0.,12.0
1989-08-24T12:43:42.380 ,4,0,0.,12.0,0.,12.0,0.,12.0,0.,12.0
1989-08-24T12:43:54.380 ,4,0,0.,12.0,0.,12.0,0.,12.0,0.,12.0
1989-08-24T12:44:06.380 ,5,0,0.,12.0,0.,12.0,0.,12.0,0.,12.0
1989-08-24T12:44:18.380 ,5,0,0.,12.0,0.,12.0,0.,12.0,0.,12.0
1989-08-24T12:44:30.380 ,5,0,0.,12.0,0.,12.0,0.,12.0,0.,12.0
1989-08-24T12:44:42.380 ,5,0,0.,12.0,0.,12.0,0.,12.0,0.,12.0
1989-08-24T12:44:54.380 ,6,0,0.,12.0,0.,12.0,0.,12.0,0.,12.0
1989-08-24T12:45:06.380 ,6,0,0.,12.0,0.,12.0,0.,12.0,0.,12.0
1989-08-24T12:45:18.380 ,6,0,0.,12.0,0.,12.0,0.,12.0,0.,12.0
1989-08-24T12:45:30.380 ,6,0,0.,12.0,0.,12.0,0.,12.0,0.,12.0
1989-08-24T12:45:42.380 ,7,0,0.,12.0,0.,12.0,0.,12.0,0.,12.0
1989-08-24T12:45:54.380 ,7,0,0.,12.0,0.,12.0,0.,12.0,0.,12.0
1989-08-24T12:46:06.380 ,7,0,0.,12.0,0.,12.0,0.,12.0,0.,12.0
1989-08-24T12:46:18.380 ,7,0,0.,12.0,0.,12.0,0.,12.0,0.,12.0
1989-08-24T12:47:18.380 ,0,0,,0,,0,,0,,0
1989-08-24T12:47:30.380 ,0,0,,0,,0,,0,,0
1989-08-24T12:47:42.380 ,0,0,,0,,0,,0,,0
1989-08-24T12:47:54.380 ,0,0,,0,,0,,0,,0
1989-08-24T12:47:30.980 ,0,0,,0,,0,,0,,0
1989-08-24T12:47:42.980 ,0,0,,0,,0,,0,,0
1989-08-24T12:47:42.380 ,0,0,,0,,0,,0,,0
1989-08-24T12:47:54.380 ,0,0,,0,,0,,0,,0
1989-08-24T12:47:33.380 ,0,0,,0,,0,,0,,0
1989-08-24T12:47:45.380 ,0,0,,0,,0,,0,,0
1989-08-24T12:47:42.380 ,0,0,,0,,0,,0,,0
1989-08-24T12:47:54.380 ,0,0,,0,,0,,0,,0
1989-08-24T12:47:38.780 ,0,0,,0,,0,,0,,0
1989-08-24T12:47:50.780 ,0,0,,0,,0,,0,,0
1989-08-24T12:47:42.380 ,0,0,0.,12.0,0.,12.0,0.,12.0,0.,12.0
1989-08-24T12:47:54.380 ,0,0,0.,12.0,0.,12.0,0.,12.0,0.,12.0
1989-08-24T12:48:06.380 ,0,0,,0,,0,,0,,0
1989-08-24T12:48:18.380 ,0,0,,0,,0,,0,,0
1989-08-24T12:48:30.380 ,0,0,,0,,0,,0,,0
1989-08-24T12:48:42.380 ,0,0,,0,,0,,0,,0
1989-08-24T12:48:06.380 ,0,0,0.,12.0,672.,12.0,2112.,12.0,30208.,12.0
1989-08-24T12:48:18.380 ,0,0,0.,12.0,0.,12.0,0.,12.0,0.,12.0
1989-08-24T12:48:30.380 ,0,0,,0,,0,,0,,0
1989-08-24T12:48:42.380 ,0,0,,0,,0,,0,,0
1989-08-24T12:48:33.980 ,0,0,,0,,0,,0,,0
1989-08-24T12:48:45.980 ,0,0,,0,,0,,0,,0
1989-08-24T12:48:41.780 ,0,0,,0,,0,,0,,0
1989-08-24T12:48:53.780 ,0,0,,0,,0,,0,,0
1989-08-24T12:48:51.980 ,0,0,,0,,0,,0,,0
1989-08-24T12:49:03.980 ,0,0,,0,,0,,0,,0
1989-08-24T12:49:00.380 ,0,0,6528.,12.0,37.,12.0,0.,12.0,2432.,12.0
1989-08-24T12:49:12.380 ,0,0,,0,,0,,0,,0
1989-08-24T12:49:18.380 ,0,0,,0,,0,,0,,0
1989-08-24T12:49:30.380 ,0,0,,0,,0,,0,,0
1989-08-24T12:49:30.380 ,0,0,,0,,0,,0,,0
1989-08-24T12:49:42.380 ,0,0,,0,,0,,0,,0
1989-08-24T12:51:12.380 ,0,0,,0,,0,,0,,0
1989-08-24T12:51:24.380 ,0,0,0.,12.0,0.,12.0,0.,12.0,0.,12.0
1989-08-24T12:51:18.380 ,1,0,0.,12.0,0.,12.0,0.,12.0,0.,12.0
1989-08-24T12:51:30.380 ,1,0,0.,12.0,0.,12.0,0.,12.0,0.,12.0
1989-08-24T12:51:42.380 ,1,0,0.,12.0,0.,12.0,0.,12.0,0.,12.0
1989-08-24T12:51:54.380 ,1,0,0.,12.0,0.,12.0,0.,12.0,0.,12.0
1989-08-24T12:52:06.380 ,0,0,0.,12.0,0.,12.0,0.,12.0,0.,12.0
1989-08-24T12:52:18.380 ,0,0,0.,12.0,0.,12.0,0.,12.0,0.,12.0
1989-08-24T12:52:30.380 ,0,0,0.,12.0,0.,12.0,0.,12.0,0.,12.0
1989-08-24T12:52:42.380 ,0,0,0.,12.0,0.,12.0,0.,12.0,0.,12.0
1989-08-24T12:52:54.380 ,0,0,0.,12.0,0.,12.0,0.,12.0,0.,12.0
1989-08-24T12:53:06.380 ,0,0,0.,12.0,0.,12.0,0.,12.0,0.,12.0
1989-08-24T12:53:18.380 ,0,0,0.,12.0,0.,12.0,0.,12.0,0.,12.0
1989-08-24T12:53:30.380 ,0,0,0.,12.0,0.,12.0,0.,12.0,0.,12.0
1989-08-24T12:53:42.380 ,1,0,0.,12.0,0.,12.0,0.,12.0,0.,12.0
1989-08-24T12:53:54.380 ,1,0,0.,12.0,0.,12.0,0.,12.0,0.,12.0
1989-08-24T12:54:06.380 ,1,0,0.,12.0,0.,12.0,0.,12.0,0.,12.0
1989-08-24T12:54:18.380 ,1,0,0.,12.0,0.,12.0,0.,12.0,0.,12.0
1989-08-24T12:54:30.380 ,2,0,0.,12.0,0.,12.0,0.,12.0,0.,12.0
1989-08-24T12:54:42.380 ,2,0,0.,12.0,0.,12.0,0.,12.0,0.,12.0
1989-08-24T12:54:54.380 ,2,0,0.,12.0,0.,12.0,0.,12.0,0.,12.0
1989-08-24T12:55:06.380 ,2,0,0.,12.0,0.,12.0,0.,12.0,0.,12.0
1989-08-24T12:55:18.380 ,3,0,0.,12.0,0.,12.0,0.,12.0,0.,12.0
1989-08-24T12:55:30.380 ,3,0,0.,12.0,0.,12.0,0.,12.0,0.,12.0
1989-08-24T12:55:42.380 ,3,0,0.,12.0,0.,12.0,0.,12.0,0.,12.0
1989-08-24T12:55:54.380 ,3,0,0.,12.0,0.,12.0,0.,12.0,0.,12.0
1989-08-24T12:56:06.380 ,4,0,0.,12.0,0.,12.0,0.,12.0,0.,12.0
1989-08-24T12:56:18.380 ,4,0,0.,12.0,0.,12.0,0.,12.0,0.,12.0
1989-08-24T12:56:30.380 ,4,0,0.,12.0,0.,12.0,0.,12.0,0.,12.0
1989-08-24T12:56:42.380 ,4,0,0.,12.0,0.,12.0,0.,12.0,0.,12.0
1989-08-24T12:56:54.380 ,5,0,0.,12.0,0.,12.0,0.,12.0,0.,12.0
1989-08-24T12:57:06.380 ,5,0,0.,12.0,0.,12.0,0.,12.0,0.,12.0
1989-08-24T12:57:18.380 ,5,0,0.,12.0,0.,12.0,0.,12.0,0.,12.0
1989-08-24T12:57:30.380 ,5,0,0.,12.0,0.,12.0,0.,12.0,0.,12.0
1989-08-24T12:57:42.380 ,6,0,0.,12.0,0.,12.0,0.,12.0,0.,12.0
1989-08-24T12:57:54.380 ,6,0,0.,12.0,0.,12.0,0.,12.0,0.,12.0
1989-08-24T12:58:06.380 ,6,0,0.,12.0,0.,12.0,0.,12.0,0.,12.0
1989-08-24T12:58:18.380 ,6,0,0.,12.0,0.,12.0,0.,12.0,0.,12.0
1989-08-24T12:58:30.380 ,7,0,0.,12.0,0.,12.0,0.,12.0,0.,12.0
1989-08-24T12:58:42.380 ,7,0,0.,12.0,0.,12.0,0.,12.0,0.,12.0
1989-08-24T12:58:54.380 ,7,0,0.,12.0,0.,12.0,0.,12.0,0.,12.0
1989-08-24T12:59:06.380 ,7,0,0.,12.0,0.,12.0,0.,12.0,0.,12.0
1989-08-24T12:59:18.380 ,7,0,0.,12.0,0.,12.0,0.,12.0,0.,12.0
1989-08-24T12:59:30.380 ,7,0,0.,12.0,0.,12.0,0.,12.0,0.,12.0
1989-08-24T12:59:42.380 ,7,0,0.,12.0,0.,12.0,0.,12.0,0.,12.0
1989-08-24T12:59:54.380 ,7,0,0.,12.0,0.,12.0,0.,12.0,0.,12.0
1989-08-24T13:00:06.380 ,6,0,0.,12.0,0.,12.0,0.,12.0,0.,12.0
1989-08-24T13:00:18.380 ,6,0,0.,12.0,0.,12.0,0.,12.0,0.,12.0
1989-08-24T13:00:30.380 ,6,0,0.,12.0,0.,12.0,0.,12.0,0.,12.0
1989-08-24T13:00:42.380 ,6,0,0.,12.0,0.,12.0,0.,12.0,0.,12.0
1989-08-24T13:00:54.380 ,5,0,0.,12.0,0.,12.0,0.,12.0,0.,12.0
1989-08-24T13:01:06.380 ,5,0,0.,12.0,0.,12.0,0.,12.0,0.,12.0
1989-08-24T13:01:18.380 ,5,0,0.,12.0,0.,12.0,0.,12.0,0.,12.0
1989-08-24T13:01:30.380 ,5,0,0.,12.0,0.,12.0,0.,12.0,0.,12.0
1989-08-24T13:01:42.380 ,4,0,0.,12.0,0.,12.0,0.,12.0,0.,12.0
1989-08-24T13:01:54.380 ,4,0,0.,12.0,0.,12.0,0.,12.0,0.,12.0
1989-08-24T13:02:06.380 ,4,0,0.,12.0,0.,12.0,0.,12.0,0.,12.0
1989-08-24T13:02:18.380 ,4,0,0.,12.0,0.,12.0,0.,12.0,0.,12.0
1989-08-24T13:02:30.380 ,3,0,0.,12.0,0.,12.0,0.,12.0,0.,12.0
1989-08-24T13:02:42.380 ,3,0,0.,12.0,0.,12.0,0.,12.0,0.,12.0
1989-08-24T13:02:54.380 ,3,0,0.,12.0,0.,12.0,0.,12.0,0.,12.0
1989-08-24T13:03:06.380 ,3,0,0.,12.0,0.,12.0,0.,12.0,0.,12.0
1989-08-24T13:03:18.380 ,2,0,0.,12.0,0.,12.0,0.,12.0,0.,12.0
1989-08-24T13:03:30.380 ,2,0,0.,12.0,0.,12.0,0.,12.0,0.,12.0
1989-08-24T13:03:42.380 ,2,0,0.,12.0,0.,12.0,0.,12.0,0.,12.0
1989-08-24T13:03:54.380 ,2,0,0.,12.0,0.,12.0,0.,12.0,0.,12.0
1989-08-24T13:04:06.380 ,1,0,0.,12.0,0.,12.0,0.,12.0,0.,12.0
1989-08-24T13:04:18.380 ,1,0,0.,12.0,0.,12.0,0.,12.0,0.,12.0
1989-08-24T13:04:30.380 ,1,0,0.,12.0,0.,12.0,0.,12.0,0.,12.0
1989-08-24T13:04:42.380 ,1,0,0.,12.0,0.,12.0,0.,12.0,0.,12.0
1989-08-24T13:04:54.380 ,0,0,0.,12.0,0.,12.0,0.,12.0,0.,12.0
1989-08-24T13:05:06.380 ,0,0,0.,12.0,0.,12.0,0.,12.0,0.,12.0
1989-08-24T13:05:18.380 ,0,0,0.,12.0,0.,12.0,0.,12.0,0.,12.0
1989-08-24T13:05:30.380 ,0,0,0.,12.0,0.,12.0,0.,12.0,0.,12.0
1989-08-24T13:05:42.380 ,0,0,0.,12.0,0.,12.0,0.,12.0,0.,12.0
1989-08-24T13:05:54.380 ,0,0,0.,12.0,0.,12.0,0.,12.0,0.,12.0
1989-08-24T13:06:06.380 ,0,0,0.,12.0,0.,12.0,0.,12.0,0.,12.0
1989-08-24T13:06:18.380 ,0,0,0.,12.0,0.,12.0,0.,12.0,0.,12.0
1989-08-24T13:06:30.380 ,1,0,0.,12.0,0.,12.0,0.,12.0,0.,12.0
1989-08-24T13:06:42.380 ,1,0,0.,12.0,0.,12.0,0.,12.0,0.,12.0
1989-08-24T13:06:54.380 ,1,0,0.,12.0,0.,12.0,0.,12.0,0.,12.0
1989-08-24T13:07:06.380 ,1,0,0.,12.0,0.,12.0,0.,12.0,0.,12.0
1989-08-24T13:07:18.380 ,2,0,0.,12.0,0.,12.0,0.,12.0,0.,12.0
1989-08-24T13:07:30.380 ,2,0,0.,12.0,0.,12.0,0.,12.0,0.,12.0
1989-08-24T13:07:42.380 ,2,0,0.,12.0,0.,12.0,0.,12.0,0.,12.0
1989-08-24T13:07:54.380 ,2,0,0.,12.0,0.,12.0,0.,12.0,0.,12.0
1989-08-24T13:08:06.380 ,3,0,0.,12.0,0.,12.0,0.,12.0,0.,12.0
1989-08-24T13:08:18.380 ,3,0,0.,12.0,0.,12.0,0.,12.0,0.,12.0
1989-08-24T13:08:30.380 ,3,0,0.,12.0,0.,12.0,0.,12.0,0.,12.0
1989-08-24T13:08:42.380 ,3,0,0.,12.0,0.,12.0,0.,12.0,0.,12.0
1989-08-24T13:08:54.380 ,4,0,0.,12.0,0.,12.0,0.,12.0,0.,12.0
1989-08-24T13:09:06.380 ,4,0,0.,12.0,0.,12.0,0.,12.0,0.,12.0
1989-08-24T13:09:18.380 ,4,0,0.,12.0,0.,12.0,0.,12.0,0.,12.0
1989-08-24T13:09:30.380 ,4,0,0.,12.0,0.,12.0,0.,12.0,0.,12.0
1989-08-24T13:09:42.380 ,5,0,0.,12.0,0.,12.0,0.,12.0,0.,12.0
1989-08-24T13:09:54.380 ,5,0,0.,12.0,0.,12.0,0.,12.0,0.,12.0
1989-08-24T13:10:06.380 ,5,0,0.,12.0,0.,12.0,0.,12.0,0.,12.0
1989-08-24T13:10:18.380 ,5,0,0.,12.0,0.,12.0,0.,12.0,0.,12.0
1989-08-24T13:10:30.380 ,6,0,0.,12.0,0.,12.0,0.,12.0,0.,12.0
1989-08-24T13:10:42.380 ,6,0,0.,12.0,0.,12.0,0.,12.0,0.,12.0
1989-08-24T13:10:54.380 ,6,0,0.,12.0,0.,12.0,0.,12.0,0.,12.0
1989-08-24T13:11:06.380 ,6,0,0.,12.0,0.,12.0,0.,12.0,0.,12.0
1989-08-24T13:11:18.380 ,7,0,0.,12.0,0.,12.0,0.,12.0,0.,12.0
1989-08-24T13:11:30.380 ,7,0,0.,12.0,0.,12.0,0.,12.0,0.,12.0
1989-08-24T13:11:42.380 ,7,0,0.,12.0,0.,12.0,0.,12.0,0.,12.0
1989-08-24T13:11:54.380 ,7,0,0.,12.0,0.,12.0,0.,12.0,0.,12.0
1989-08-24T13:12:06.380 ,7,0,0.,12.0,0.,12.0,0.,12.0,0.,12.0
1989-08-24T13:12:18.380 ,7,0,0.,12.0,0.,12.0,0.,12.0,0.,12.0
1989-08-24T13:12:30.380 ,7,0,0.,12.0,0.,12.0,0.,12.0,0.,12.0
1989-08-24T13:12:42.380 ,7,0,0.,12.0,0.,12.0,0.,12.0,0.,12.0
1989-08-24T13:12:54.380 ,6,0,0.,12.0,0.,12.0,0.,12.0,0.,12.0
1989-08-24T13:13:06.380 ,6,0,0.,12.0,0.,12.0,0.,12.0,0.,12.0
1989-08-24T13:13:18.380 ,6,0,0.,12.0,0.,12.0,0.,12.0,0.,12.0
1989-08-24T13:13:30.380 ,6,0,0.,12.0,0.,12.0,0.,12.0,0.,12.0
1989-08-24T13:13:42.380 ,5,0,0.,12.0,0.,12.0,0.,12.0,0.,12.0
1989-08-24T13:13:54.380 ,5,0,0.,12.0,0.,12.0,0.,12.0,0.,12.0
1989-08-24T13:14:06.380 ,5,0,0.,12.0,0.,12.0,0.,12.0,0.,12.0
1989-08-24T13:14:18.380 ,5,0,0.,12.0,0.,12.0,0.,12.0,0.,12.0
1989-08-24T13:14:30.380 ,4,0,0.,12.0,0.,12.0,0.,12.0,0.,12.0
1989-08-24T13:14:42.380 ,4,0,0.,12.0,0.,12.0,0.,12.0,0.,12.0
1989-08-24T13:14:54.380 ,4,0,0.,12.0,0.,12.0,0.,12.0,0.,12.0
1989-08-24T13:15:06.380 ,4,0,0.,12.0,0.,12.0,0.,12.0,0.,12.0
1989-08-24T13:15:18.380 ,3,0,0.,12.0,0.,12.0,0.,12.0,0.,12.0
1989-08-24T13:15:30.380 ,3,0,0.,12.0,0.,12.0,0.,12.0,0.,12.0
1989-08-24T13:15:42.380 ,3,0,0.,12.0,0.,12.0,0.,12.0,0.,12.0
1989-08-24T13:15:54.380 ,3,0,0.,12.0,0.,12.0,0.,12.0,0.,12.0
1989-08-24T13:16:06.380 ,2,0,0.,12.0,0.,12.0,0.,12.0,0.,12.0
1989-08-24T13:16:18.380 ,2,0,0.,12.0,0.,12.0,0.,12.0,0.,12.0
1989-08-24T13:16:30.380 ,2,0,0.,12.0,0.,12.0,0.,12.0,0.,12.0